OK1VCF-8 Weather Reports


time (UTC)temp
C
wind
direction
speed
KPH
gust
KPH
rain 1hr
cm
rain 24hr
cm
rain mn
cm
humidity
%
barometer
mb
20260831125106 25 0 0.0 0.0 0.00 0.00 0.00 48 1016.8
20260831124050 25 0 0.0 0.0 0.00 0.00 0.00 50 1016.8
20260831123322 24 0 0.0 0.0 0.00 0.00 0.00 52 1016.7
20260831122556 23 0 0.0 0.0 0.00 0.00 0.00 54 1016.6
20260831121823 23 0 0.0 0.0 0.00 0.00 0.00 58 1016.8
20260831121054 24 0 0.0 0.0 0.00 0.00 0.00 54 1016.7
20260831120317 23 0 0.0 0.0 0.00 0.00 0.00 55 1016.6
20260831115534 23 0 0.0 0.0 0.00 0.00 0.00 56 1016.8
20260831114759 23 0 0.0 0.0 0.00 0.00 0.00 58 1016.7
20260831114024 23 0 0.0 0.0 0.00 0.00 0.00 58 1016.8
20260831113256 24 0 0.0 0.0 0.00 0.00 0.00 59 1016.8
20260831112528 24 0 0.0 0.0 0.00 0.00 0.00 60 1016.8
20260831111802 23 0 0.0 0.0 0.00 0.00 0.00 62 1016.8
20260831111038 23 0 0.0 0.0 0.00 0.00 0.00 64 1017.0
20260831110319 23 0 0.0 0.0 0.00 0.00 0.00 64 1017.0
20260831105559 23 0 0.0 0.0 0.00 0.00 0.00 65 1017.0
20260831104556 22 0 0.0 0.0 0.00 0.00 0.00 68 1017.0
20260831103836 23 0 0.0 0.0 0.00 0.00 0.00 67 1017.0
20260831103118 23 0 0.0 0.0 0.00 0.00 0.00 69 1017.0
20260831102359 22 0 0.0 0.0 0.00 0.00 0.00 72 1017.0
20260831101640 23 0 0.0 0.0 0.00 0.00 0.00 70 1016.9
20260831100921 23 0 0.0 0.0 0.00 0.00 0.00 73 1016.8
20260831100201 23 0 0.0 0.0 0.00 0.00 0.00 74 1017.0
20260831095441 22 0 0.0 0.0 0.00 0.00 0.00 78 1017.1
20260831094723 22 0 0.0 0.0 0.00 0.00 0.00 76 1017.0
20260831094003 23 0 0.0 0.0 0.00 0.00 0.00 74 1017.0
20260831093245 22 0 0.0 0.0 0.00 0.00 0.00 75 1017.0
20260831092528 22 0 0.0 0.0 0.00 0.00 0.00 77 1017.0
20260831091810 21 0 0.0 0.0 0.00 0.00 0.00 78 1017.1
20260831091052 21 0 0.0 0.0 0.00 0.00 0.00 80 1017.1
20260831090334 20 0 0.0 0.0 0.00 0.00 0.00 84 1017.0
20260831085331 20 0 0.0 0.0 0.00 0.00 0.00 90 1017.0
20260831084614 18 0 0.0 0.0 0.00 0.00 0.00 91 1016.9
20260831083855 18 0 0.0 0.0 0.00 0.00 0.00 92 1016.7
20260831083137 17 0 0.0 0.0 0.00 0.00 0.00 92 1016.8
20260831082419 17 0 0.0 0.0 0.00 0.00 0.00 92 1016.7
20260831081700 17 0 0.0 0.0 0.00 0.00 0.00 93 1016.6
20260831080941 17 0 0.0 0.0 0.00 0.00 0.00 93 1016.3
20260831074759 16 0 0.0 0.0 0.00 0.00 0.00 94 1016.0
20260831074040 16 0 0.0 0.0 0.00 0.00 0.00 94 1016.0
20260831073321 16 0 0.0 0.0 0.00 0.00 0.00 94 1015.9
20260831072601 16 0 0.0 0.0 0.00 0.00 0.00 94 1016.2
20260831071840 16 0 0.0 0.0 0.00 0.00 0.00 94 1016.2
20260831071119 16 0 0.0 0.0 0.00 0.00 0.00 94 1016.4
20260831070109 15 0 0.0 0.0 0.00 0.00 0.00 93 1016.6
20260831065344 15 0 0.0 0.0 0.00 0.00 0.00 93 1017.0
20260831064620 15 0 0.0 0.0 0.00 0.00 0.00 92 1016.9
20260831063849 16 0 0.0 0.0 0.00 0.00 0.00 92 1016.7
20260831063127 16 0 0.0 0.0 0.00 0.00 0.00 90 1017.1
20260831062402 16 0 0.0 0.0 0.00 0.00 0.00 88 1016.5
20260831061638 18 0 0.0 0.0 0.00 0.00 0.00 77 1015.2
20260831060916 18 0 0.0 0.0 0.00 0.00 0.00 77 1014.6
20260831060152 18 0 0.0 0.0 0.00 0.00 0.00 77 1014.6
20260831055428 18 0 0.0 0.0 0.00 0.00 0.00 78 1014.6
20260831054706 18 0 0.0 0.0 0.00 0.00 0.00 77 1014.4
20260831053948 18 0 0.0 0.0 0.00 0.00 0.00 77 1014.8
20260831053231 18 0 0.0 0.0 0.00 0.00 0.00 78 1014.7
20260831052511 18 0 0.0 0.0 0.00 0.00 0.00 78 1014.8
20260831051755 17 0 0.0 0.0 0.00 0.00 0.00 79 1014.8
20260831050753 17 0 0.0 0.0 0.00 0.00 0.00 79 1014.8
20260831050033 17 0 0.0 0.0 0.00 0.00 0.00 80 1014.8
20260831045314 17 0 0.0 0.0 0.00 0.00 0.00 80 1014.9
20260831044555 17 0 0.0 0.0 0.00 0.00 0.00 81 1015.0
20260831043838 17 0 0.0 0.0 0.00 0.00 0.00 82 1014.9
20260831043119 16 0 0.0 0.0 0.00 0.00 0.00 84 1014.8
20260831042400 16 0 0.0 0.0 0.00 0.00 0.00 83 1014.8
20260831041642 16 0 0.0 0.0 0.00 0.00 0.00 84 1014.8
20260831040925 17 0 0.0 0.0 0.00 0.00 0.00 83 1015.1
20260831040207 16 0 0.0 0.0 0.00 0.00 0.00 84 1015.2
20260831035449 16 0 0.0 0.0 0.00 0.00 0.00 84 1015.0
20260831034732 16 0 0.0 0.0 0.00 0.00 0.00 84 1015.0
20260831034013 16 0 0.0 0.0 0.00 0.00 0.00 84 1015.2
20260831033257 16 0 0.0 0.0 0.00 0.00 0.00 84 1015.2
20260831032539 16 0 0.0 0.0 0.00 0.00 0.00 83 1015.2
20260831031537 16 0 0.0 0.0 0.00 0.00 0.00 84 1015.6
20260831030820 16 0 0.0 0.0 0.00 0.00 0.00 84 1015.6
20260831025344 16 0 0.0 0.0 0.00 0.00 0.00 83 1015.6
20260831024627 17 0 0.0 0.0 0.00 0.00 0.00 82 1015.8
20260831023909 17 0 0.0 0.0 0.00 0.00 0.00 82 1015.7
20260831023153 17 0 0.0 0.0 0.00 0.00 0.00 82 1015.9
20260831022435 17 0 0.0 0.0 0.00 0.00 0.00 81 1016.0
20260831021718 17 0 0.0 0.0 0.00 0.00 0.00 80 1015.9
20260831020954 17 0 0.0 0.0 0.00 0.00 0.00 82 1015.8
20260831020225 16 0 0.0 0.0 0.00 0.00 0.00 84 1015.9
20260831015500 16 0 0.0 0.0 0.00 0.00 0.00 83 1015.8
20260831014734 17 0 0.0 0.0 0.00 0.00 0.00 82 1016.0
20260831014009 16 0 0.0 0.0 0.00 0.00 0.00 84 1016.0
20260831013245 16 0 0.0 0.0 0.00 0.00 0.00 83 1016.0
20260831012234 16 0 0.0 0.0 0.00 0.00 0.00 82 1016.0
20260831011515 17 0 0.0 0.0 0.00 0.00 0.00 81 1016.0
20260831010757 17 0 0.0 0.0 0.00 0.00 0.00 79 1016.0
20260831010034 17 0 0.0 0.0 0.00 0.00 0.00 79 1016.0
20260831005306 17 0 0.0 0.0 0.00 0.00 0.00 80 1016.2
20260831004532 17 0 0.0 0.0 0.00 0.00 0.00 80 1016.2
20260831003756 17 0 0.0 0.0 0.00 0.00 0.00 79 1016.2
20260831003023 17 0 0.0 0.0 0.00 0.00 0.00 81 1016.2
20260831002249 17 0 0.0 0.0 0.00 0.00 0.00 80 1016.2
20260831001514 17 0 0.0 0.0 0.00 0.00 0.00 80 1016.2
20260831000737 17 0 0.0 0.0 0.00 0.00 0.00 80 1016.2
20260831000002 17 0 0.0 0.0 0.00 0.00 0.00 80 1016.4
20260830235225 17 0 0.0 0.0 0.00 0.00 0.00 79 1016.1
20260830234448 17 0 0.0 0.0 0.00 0.00 0.00 78 1016.2
20260830233716 18 0 0.0 0.0 0.00 0.00 0.00 76 1016.2
20260830232701 18 0 0.0 0.0 0.00 0.00 0.00 76 1016.4
20260830231934 18 0 0.0 0.0 0.00 0.00 0.00 76 1016.4
20260830231212 18 0 0.0 0.0 0.00 0.00 0.00 75 1016.3
20260830230455 18 0 0.0 0.0 0.00 0.00 0.00 74 1016.4
20260830225737 18 0 0.0 0.0 0.00 0.00 0.00 76 1016.4
20260830225019 18 0 0.0 0.0 0.00 0.00 0.00 76 1016.4
20260830224301 18 0 0.0 0.0 0.00 0.00 0.00 75 1016.5
20260830223544 19 0 0.0 0.0 0.00 0.00 0.00 74 1016.4
20260830222828 20 0 0.0 0.0 0.00 0.00 0.00 72 1016.5
20260830222111 20 0 0.0 0.0 0.00 0.00 0.00 72 1016.4
20260830221353 19 0 0.0 0.0 0.00 0.00 0.00 74 1016.4
20260830220635 18 0 0.0 0.0 0.00 0.00 0.00 74 1016.4
20260830215917 18 0 0.0 0.0 0.00 0.00 0.00 76 1016.3
20260830215200 18 0 0.0 0.0 0.00 0.00 0.00 74 1016.4
20260830214441 18 0 0.0 0.0 0.00 0.00 0.00 74 1016.4
20260830213440 18 0 0.0 0.0 0.00 0.00 0.00 72 1016.4
20260830212723 18 0 0.0 0.0 0.00 0.00 0.00 72 1016.4
20260830212005 18 0 0.0 0.0 0.00 0.00 0.00 72 1016.4
20260830211247 18 0 0.0 0.0 0.00 0.00 0.00 72 1016.5
20260830210529 19 0 0.0 0.0 0.00 0.00 0.00 71 1016.5
20260830205811 20 0 0.0 0.0 0.00 0.00 0.00 71 1016.6
20260830205054 20 0 0.0 0.0 0.00 0.00 0.00 72 1016.5
20260830204335 20 0 0.0 0.0 0.00 0.00 0.00 72 1016.6
20260830203618 20 0 0.0 0.0 0.00 0.00 0.00 71 1016.4
20260830202859 20 0 0.0 0.0 0.00 0.00 0.00 70 1016.5
20260830202141 20 0 0.0 0.0 0.00 0.00 0.00 69 1016.5
20260830201423 20 0 0.0 0.0 0.00 0.00 0.00 68 1016.5
20260830200706 20 0 0.0 0.0 0.00 0.00 0.00 67 1016.4
20260830195946 21 0 0.0 0.0 0.00 0.00 0.00 66 1016.3
20260830195227 21 0 0.0 0.0 0.00 0.00 0.00 65 1016.4
20260830194224 21 0 0.0 0.0 0.00 0.00 0.00 64 1016.4
20260830193505 21 0 0.0 0.0 0.00 0.00 0.00 64 1016.4
20260830192747 21 0 0.0 0.0 0.00 0.00 0.00 64 1016.4
20260830192028 21 0 0.0 0.0 0.00 0.00 0.00 64 1016.2
20260830191310 21 0 0.0 0.0 0.00 0.00 0.00 64 1016.2
20260830190551 21 0 0.0 0.0 0.00 0.00 0.00 64 1016.2
20260830185833 21 0 0.0 0.0 0.00 0.00 0.00 64 1016.2
20260830185116 21 0 0.0 0.0 0.00 0.00 0.00 64 1016.1
20260830184358 21 0 0.0 0.0 0.00 0.00 0.00 64 1016.1
20260830183642 21 0 0.0 0.0 0.00 0.00 0.00 62 1016.0
20260830182920 21 0 0.0 0.0 0.00 0.00 0.00 62 1015.8
20260830182203 21 0 0.0 0.0 0.00 0.00 0.00 62 1015.8
20260830181445 22 0 0.0 0.0 0.00 0.00 0.00 61 1015.8
20260830180723 22 0 0.0 0.0 0.00 0.00 0.00 61 1015.6
20260830180001 22 0 0.0 0.0 0.00 0.00 0.00 60 1015.4
20260830174958 22 0 0.0 0.0 0.00 0.00 0.00 58 1015.6
20260830174238 23 0 0.0 0.0 0.00 0.00 0.00 56 1015.5
20260830173522 23 0 0.0 0.0 0.00 0.00 0.00 55 1015.4
20260830172803 23 0 0.0 0.0 0.00 0.00 0.00 54 1015.4
20260830172043 24 0 0.0 0.0 0.00 0.00 0.00 52 1015.4
20260830171327 24 0 0.0 0.0 0.00 0.00 0.00 52 1015.3
20260830170608 25 0 0.0 0.0 0.00 0.00 0.00 50 1015.3
20260830165847 25 0 0.0 0.0 0.00 0.00 0.00 50 1015.2
20260830165129 25 0 0.0 0.0 0.00 0.00 0.00 48 1015.2
20260830164411 26 0 0.0 0.0 0.00 0.00 0.00 46 1015.2
20260830163653 26 0 0.0 0.0 0.00 0.00 0.00 45 1015.2
20260830162933 26 0 0.0 0.0 0.00 0.00 0.00 45 1015.2
20260830162215 26 0 0.0 0.0 0.00 0.00 0.00 44 1015.2
20260830161455 26 0 0.0 0.0 0.00 0.00 0.00 42 1015.2
20260830160736 27 0 0.0 0.0 0.00 0.00 0.00 42 1015.2
20260830155732 28 0 0.0 0.0 0.00 0.00 0.00 40 1015.2
20260830155013 27 0 0.0 0.0 0.00 0.00 0.00 40 1015.2
20260830154255 28 0 0.0 0.0 0.00 0.00 0.00 36 1015.2
20260830153537 31 0 0.0 0.0 0.00 0.00 0.00 36 1015.2
20260830152818 30 0 0.0 0.0 0.00 0.00 0.00 38 1015.2
20260830152059 28 0 0.0 0.0 0.00 0.00 0.00 38 1015.4
20260830151342 31 0 0.0 0.0 0.00 0.00 0.00 34 1015.4
20260830150625 27 0 0.0 0.0 0.00 0.00 0.00 41 1015.4
20260830145906 27 0 0.0 0.0 0.00 0.00 0.00 41 1015.6
20260830145146 27 0 0.0 0.0 0.00 0.00 0.00 40 1015.5
20260830144428 28 0 0.0 0.0 0.00 0.00 0.00 41 1015.4
20260830143710 27 0 0.0 0.0 0.00 0.00 0.00 42 1015.4
20260830142949 27 0 0.0 0.0 0.00 0.00 0.00 42 1015.4
20260830142232 27 0 0.0 0.0 0.00 0.00 0.00 41 1015.4
20260830141511 27 0 0.0 0.0 0.00 0.00 0.00 41 1015.6
20260830135045 26 0 0.0 0.0 0.00 0.00 0.00 43 1015.4
20260830134326 27 0 0.0 0.0 0.00 0.00 0.00 43 1015.6
20260830133607 27 0 0.0 0.0 0.00 0.00 0.00 43 1015.6
20260830132847 26 0 0.0 0.0 0.00 0.00 0.00 42 1015.7
20260830132130 27 0 0.0 0.0 0.00 0.00 0.00 42 1015.7
20260830131410 26 0 0.0 0.0 0.00 0.00 0.00 44 1015.8
20260830130652 27 0 0.0 0.0 0.00 0.00 0.00 42 1015.8
20260830125925 26 0 0.0 0.0 0.00 0.00 0.00 42 1015.8